Location: Birkigt
(50.7480°N, 11.9667°E)
Time: 18:14:00
(UTC+00:00)

Daily predictions for brighter satellites

Satellite Brightness Start Highest point End
(mag) Time Altitude Azimuth Time Altitude Azimuth Time Altitude Azimuth
USA 229 DEB 4.0 16:19:40 10° NW 16:26:47 61° NE 16:34:19 10° ESE
USA 229 4.0 16:19:47 10° NW 16:26:53 60° NE 16:34:24 10° ESE
Cosmos 2112 Rocket 4.1 16:26:02 10° NNW 16:31:12 55° ENE 16:36:17 10° SE
ATLAS 5 CENTAUR R/B 2.9 16:28:27 10° W 16:32:17 32° NNW 16:36:41 10° NE
COSMOS 2455 3.0 16:26:32 10° SW 16:32:34 81° NW 16:38:39 10° NE
Cosmos 1818 3.6 16:28:14 10° SSW 16:33:40 79° SE 16:39:09 10° NE
Cosmos 1626 Rocket 4.3 16:30:39 10° SSE 16:34:35 32° E 16:38:33 10° NNE
USA 290 3.7 16:33:34 10° N 16:35:52 18° NE 16:38:09 10° E
Nadezhda 4 Rocket 4.1 16:30:48 10° SSE 16:36:48 53° E 16:42:46 10° NNE
Lacrosse 5 4.0 16:33:34 10° WNW 16:38:00 31° SW 16:42:23 10° SSE
SeaSat 1 2.9 16:33:16 10° NNE 16:38:09 62° NW 16:43:01 10° SW
Cosmos 158 Rocket 4.2 16:33:39 10° NNW 16:39:02 84° WSW 16:44:27 10° SSE
Meteor 1-24 Rocket 4.2 16:36:32 10° SSW 16:41:46 59° WNW 16:47:03 10° N
NOSS 3-1 (A) 4.1 16:35:16 10° NW 16:42:24 65° NE 16:50:47 10° ESE
AQUARIUS 4.4 16:39:54 10° S 16:44:23 78° WSW 16:48:56 10° NNW
Cosmos 2278 Rocket 3.6 16:40:55 10° SE 16:44:43 19° E 16:48:32 10° ENE
ERS-2 3.8 16:45:55 10° NE 16:48:13 16° E 16:50:30 10° SE
Aureole 3 Rocket 3.5 16:45:54 10° NNE 16:48:33 24° ENE 16:51:35 10° SE
ATLAS 2AS CENTAUR R/B 4.0 16:42:12 10° W 16:49:25 37° NNW 16:56:22 10° NE
CZ-4B R/B 3.6 16:45:49 10° S 16:51:24 73° WSW 16:57:06 10° NNW
TELKOM 3 2.8 16:51:02 10° W 16:53:11 72° S 16:54:58 15° E
COSMO-SKYMED 1 3.2 16:50:34 10° NNE 16:54:36 36° E 16:58:37 10° SSE
Cosmos-2242 3.9 16:52:15 10° N 16:55:57 27° ENE 16:59:39 10° SE
Cosmos 1340 3.4 16:52:46 10° SSE 16:56:06 31° E 16:59:28 10° NNE
Landsat 5 3.8 16:52:35 10° N 16:56:27 63° WNW 17:00:13 10° SSW
Okean 1-7 Rocket 3.7 16:52:41 10° S 16:57:16 87° W 17:01:53 10° N
Cosmos 44 3.4 16:53:09 10° SSW 16:57:55 62° SE 17:02:59 10° NE
CZ-2C R/B 3.3 16:55:48 10° SSE 17:01:13 59° ENE 17:06:52 10° N
Iridium 4 Rocket 3.9 16:57:28 10° N 17:02:39 41° ENE 17:07:24 10° SSE
Cosmos 1455 2.5 16:59:36 10° NNW 17:03:26 70° W 17:07:16 10° S
ISS -3.8 17:00:25 10° W 17:03:49 84° N 17:06:14 18° ENE
ARGOS 3.8 17:03:33 10° ESE 17:08:15 32° ENE 17:13:00 10° N
USA 234 3.7 17:03:07 13° ENE 17:08:49 53° N 17:15:09 10° W
Cosmos 2263 Rocket 4.0 17:05:35 10° W 17:10:11 25° NW 17:14:47 10° NNE
Cosmos 1328 4.1 17:06:36 10° SSE 17:10:23 43° E 17:14:10 10° NNE
Cosmos 1689 Rocket 3.9 17:12:03 15° ESE 17:12:03 15° ESE 17:13:04 10° SE
X-37B 2.3 17:09:27 10° WSW 17:12:14 28° S 17:14:46 12° SE
Cosmos 2026 Rocket 4.2 17:06:25 10° SSE 17:12:16 48° E 17:18:14 10° NNE
H-2A R/B 2.5 17:09:27 10° N 17:13:51 67° WNW 17:18:07 10° SSW
CZ-2C R/B 4.0 17:12:13 14° NE 17:14:51 19° E 17:18:43 10° SE
Cosmos 1553 Rocket 4.4 17:09:54 10° N 17:15:59 43° ENE 17:21:58 10° SE
CZ-2D R/B 3.1 17:13:07 10° SSE 17:16:58 80° ENE 17:20:48 10° NNW
Cosmos 1602 Rocket 3.5 17:13:15 10° S 17:17:33 62° E 17:21:55 10° NNE
CZ-4 R/B 4.3 17:15:52 10° SSE 17:20:00 76° ENE 17:24:11 10° N
Cosmos 405 2.9 17:17:27 10° N 17:20:58 60° ENE 17:24:26 10° SSE
NOSS 2-1 (E) 3.0 17:18:46 10° SSW 17:22:02 60° SE 17:23:58 24° NE
SJ 16-02 2.2 17:18:53 10° SW 17:23:09 49° WNW 17:27:27 10° NNE
YAOGAN 1 2.7 17:19:07 10° SE 17:23:18 51° ENE 17:27:30 10° N
CSL-04 DEB 4.4 17:23:31 10° NNE 17:27:42 86° WNW 17:31:44 10° SSW
Helios 1A Rocket 3.2 17:24:11 10° SE 17:28:07 44° ENE 17:32:04 10° N
Cosmos 1898 Rocket 3.4 17:26:03 10° SSW 17:31:18 80° ESE 17:36:33 10° NNE
Cosmos 1939 Rocket 4.0 17:29:00 10° S 17:32:57 47° W 17:36:52 10° NNW
Cosmos 1825 Rocket 4.0 17:28:55 10° SSE 17:33:00 38° E 17:36:47 12° NNE
Cosmos 1812 Rocket 3.7 17:29:43 10° NNW 17:34:07 75° W 17:38:27 10° S
Okean O Rocket 3.7 17:30:36 10° SSW 17:34:32 31° W 17:38:29 10° NNW
CZ-4C R/B 3.8 17:29:55 10° WNW 17:34:59 27° N 17:39:09 16° NE
Meteor 1-21 Rocket 4.5 17:31:15 10° SSW 17:36:46 70° WNW 17:42:23 10° N
Cosmos 372 Rocket 4.5 17:32:19 10° S 17:37:06 38° ESE 17:39:47 23° NE
CSL-04 Debris 4.2 17:33:38 10° SE 17:38:51 53° ENE 17:44:06 10° N
Cosmos 2195 Rocket 4.5 17:33:16 10° S 17:39:37 84° E 17:45:59 10° N
Cosmos 1048 Rocket 4.3 17:36:39 10° NNW 17:41:33 42° ENE 17:44:13 24° ESE
Cosmos 1833 Rocket 2.7 17:35:57 10° NNW 17:41:37 89° WSW 17:47:14 10° SSE
Cosmos 2344 4.4 17:32:42 10° NW 17:41:47 87° SW 17:54:32 10° SE
S3M 4.2 17:36:04 10° N 17:41:56 45° ENE 17:47:46 10° SE
SKYMED 2 3.6 17:38:25 10° NNE 17:42:48 79° WNW 17:47:08 10° SSW
Okean-O 2.5 17:39:46 10° SSE 17:44:12 83° ENE 17:48:41 10° NNW
CZ-4B R/B 2.0 17:43:24 10° N 17:46:40 54° WNW 17:49:50 10° SSW
Cosmos 1428 Rocket 4.4 17:42:11 10° S 17:48:29 82° E 17:54:50 10° NNE
Cosmos 2098 Rocket 4.3 17:45:49 10° S 17:53:13 79° E 18:00:22 10° NNE
MOS 1 Rocket 3.2 17:50:24 10° N 17:54:42 74° WNW 17:59:00 10° SSW
Cosmos 1937 Rocket 3.5 17:50:11 10° SSW 17:55:31 88° WNW 18:00:15 13° NNE
COSMOS 2406 3.7 17:49:56 10° NW 17:55:40 65° WSW 18:01:21 10° SSE
Meteor 1-27 4.1 17:50:18 10° N 17:55:56 74° ENE 18:01:30 10° SSE
Cosmos 1953 Rocket 3.7 17:54:36 10° SSE 17:58:45 46° E 17:58:45 46° E
Cosmos 2082 Rocket 2.1 17:53:31 10° NNW 17:59:16 74° ENE 18:03:50 16° SE
H-2A R/B 2.1 17:54:38 10° SSE 17:59:43 81° WSW 18:04:58 10° NNW
CZ-4 R/B 1.9 17:55:48 10° S 17:59:47 61° WSW 18:03:44 10° NNW
Cosmos 1844 Rocket 4.1 17:55:44 10° WSW 18:00:55 35° NW 18:06:06 10° NNE
USA 290 3.7 18:07:24 10° NW 18:10:24 37° WSW 18:13:03 12° S
NOSS 2-1 (C) 3.8 18:08:02 10° WSW 18:11:15 44° NW 18:11:52 39° N
Cosmos 2292 Rocket 4.0 18:08:59 10° S 18:12:41 44° SE 18:12:41 44° SE
NOSS 2-2 (C) 4.4 18:09:27 10° NW 18:14:24 56° NE 18:15:57 44° E
Meteor 2-19 Rocket 4.5 18:09:22 10° SSW 18:15:33 83° W 18:21:46 10° N
NOSS 2-1 (D) 4.0 18:14:03 10° WSW 18:17:13 40° NW 18:17:38 38° NNW
MetOp-A 4.2 18:17:37 50° E 18:18:01 52° ENE 18:23:13 10° N
ATLAS 5 CENTAUR R/B 3.7 18:14:57 10° NW 18:18:23 19° N 18:19:31 18° NNE
COSMOS 2455 4.5 18:14:22 10° W 18:19:25 27° NNW 18:23:29 14° NNE
Cosmos 1346 Rocket 2.9 18:16:36 10° SSW 18:20:31 74° WNW 18:21:32 47° N
CSL-04 Rocket 3.7 18:15:52 10° SSE 18:21:20 81° WSW 18:26:54 10° NNW
ERS-2 3.0 18:20:14 25° N 18:22:01 49° WNW 18:25:32 10° SW
deb Kosmos-1763 4.4 18:19:58 10° NNW 18:23:06 60° WNW 18:23:06 60° WNW
HJ-1C 4.3 18:27:14 48° WSW 18:27:15 48° W 18:30:33 10° NNW
Cosmos 2278 Rocket 2.2 18:22:23 10° SSW 18:28:05 85° WNW 18:30:40 34° NNE
Meteor 2-2 Rocket 4.2 18:23:34 10° N 18:29:31 69° ENE 18:31:48 39° SE
SL-08 RB Rocket 3.6 18:28:06 33° S 18:30:05 82° WSW 18:34:36 10° NNW
COSMO-SKYMED 1 4.4 18:26:54 10° N 18:30:41 29° WNW 18:34:26 10° SW
NOSS 2-2 (E) 4.3 18:32:39 10° NW 18:37:58 82° NE 18:39:25 56° SE
ISS -1.8 18:37:20 10° W 18:39:13 30° WNW 18:39:13 30° WNW
ATLAS 2AS CENTAUR R/B 3.9 18:35:40 10° NW 18:42:30 32° N 18:44:15 29° NNE
Ariane Rocket 3.9 18:48:49 38° N 18:48:49 38° N 18:51:59 10° N
X-37B 3.6 18:46:19 10° WSW 18:47:04 13° SW 18:47:04 13° SW
ARGOS 4.1 18:43:13 10° S 18:48:22 47° W 18:53:35 10° NNW
Cosmos 2266 Rocket 3.8 18:45:02 10° S 18:51:16 81° E 18:57:26 10° NNE
USA 234 3.3 18:50:28 55° NE 18:51:22 60° NNE 18:57:48 10° WNW
MOS 1 4.4 18:53:17 62° NNE 18:53:17 62° NNE 18:58:08 10° NNW
Cosmos 1809 Rocket 4.3 18:46:41 10° S 18:52:48 90° E 18:59:02 10° N
CZ-2C R/B 2.7 18:53:41 40° N 18:55:47 81° WNW 19:01:24 10° SSW
USA 281 4.0 19:08:46 38° NNE 19:08:46 38° NNE 19:13:17 10° NNW
Cosmos 2315 Rocket 4.0 19:11:15 10° NNW 19:17:23 75° W 19:17:23 75° W
CZ-4C R/B 3.7 19:19:18 10° NW 19:24:20 35° N 19:24:20 35° N
Cosmos 2082 Rocket 4.3 19:38:30 10° NW 19:42:47 22° W 19:45:48 15° SW
Cosmos 2278 Rocket 4.3 20:08:37 10° W 20:12:34 22° NW 20:12:34 22° NW
ATLAS 2AS CENTAUR R/B 4.2 20:27:38 10° NW 20:31:42 32° NNW 20:31:42 32° NNW
